This is the latest recevied weather packets stored in our database for station/object KC2BRB-1. If no packets are shown the sender has not sent any weather packets the latest 10 day(s).
| Time | Temp. | Humidity | Pressure | Rain* | Wind** | Luminosity | Snow |
|---|---|---|---|---|---|---|---|
| 1777670559 | 32.22° C | 47% | 1006.5 hPa | 0 mm | - | - | - |
| 1777670391 | 32.22° C | 47% | 1006.5 hPa | 0 mm | - | - | - |
| 1777670259 | 32.22° C | 47% | 1006.5 hPa | 0 mm | - | - | - |
| 1777669959 | 32.78° C | 45% | 1006.2 hPa | 0 mm | - | - | - |
| 1777669059 | 32.78° C | 45% | 1006.5 hPa | 0 mm | - | - | - |
| 1777668759 | 32.78° C | 46% | 1006.5 hPa | 0 mm | - | - | - |
| 1777668459 | 32.78° C | 46% | 1006.5 hPa | 0 mm | - | - | - |
| 1777668159 | 33.89° C | 44% | 1006.6 hPa | 0 mm | - | - | - |
| 1777667559 | 33.33° C | 47% | 1006.6 hPa | 0 mm | - | - | - |
| 1777666959 | 32.78° C | 50% | 1006.6 hPa | 0 mm | - | - | - |
| 1777666735 | 32.78° C | 50% | 1006.6 hPa | 0 mm | - | - | - |
| 1777666659 | 32.78° C | 50% | 1006.6 hPa | 0 mm | - | - | - |
| 1777666428 | 32.22° C | 46% | 1007 hPa | 0 mm | - | - | - |
| 1777666359 | 32.22° C | 46% | 1007 hPa | 0 mm | - | - | - |
| 1777665880 | 32.22° C | 47% | 1007.1 hPa | 0 mm | - | - | - |
| 1777665838 | 32.22° C | 47% | 1007.1 hPa | 0 mm | - | - | - |
| 1777665759 | 32.22° C | 47% | 1007.1 hPa | 0 mm | - | - | - |
| 1777665459 | 32.22° C | 47% | 1007.1 hPa | 0 mm | - | - | - |
| 1777665300 | 32.78° C | 47% | 1007.1 hPa | 0 mm | - | - | - |
| 1777665253 | 32.78° C | 47% | 1007.1 hPa | 0 mm | - | - | - |
| 1777665159 | 32.78° C | 47% | 1007.1 hPa | 0 mm | - | - | - |
| 1777664559 | 33.33° C | 51% | 1007.5 hPa | 0 mm | - | - | - |
| 1777664259 | 33.33° C | 51% | 1007.5 hPa | 0 mm | - | - | - |
| 1777663960 | 32.22° C | 48% | 1007.9 hPa | 0 mm | - | - | - |
| 1777663660 | 32.22° C | 48% | 1007.9 hPa | 0 mm | - | - | - |
* Rain latest hour (hover to see other rain measurements)
** Current wind speed in m/s (hover to see current wind gust speed)